Regional Weather Roundup
Issued by NWS

Home | Current Version | Previous Version | Text Only | Print | Product List | Glossary On
Versions: 1 2 3 4 5 6 7 8 9 10 11 12 13 14 15 16 17 18 19 20 21 22 23 24 25 26 27 28 29 30 31 32 33 34 35 36 37 38 39 40 41 42 43 44 45 46 47 48 49 50
000
ASUS43 KLSX 220357
RWRMO

WEATHER SUMMARY FOR MISSOURI
NATIONAL WEATHER SERVICE SPRINGFIELD MO
1000 PM CST SUN JAN 21 2018

NOTE: "FAIR" INDICATES FEW OR NO CLOUDS BELOW 12,000 FEET WITH NO
       SIGNIFICANT WEATHER AND/OR OBSTRUCTIONS TO VISIBILITY.
       CURRENT SKY AND/OR WEATHER CONDITIONS ARE NOT AVAILABLE FOR
       CHILLICOTHE AND FARMINGTON.

MOZ001>031-035>038-043-044-053-054-220500-
...NORTHERN AND WESTERN MISSOURI...

CITY           SKY/WX    TMP DP  RH WIND       PRES   REMARKS
KANSAS CTY INT MOCLDY    57  53  86 W15       29.56F
LEE`S SUMMIT   CLOUDY    58  55  90 SE14      29.56F
ST JOSEPH      LGT RAIN  52  51  97 CALM      29.59R
CHILLICOTHE      N/A     52  50  93 SE3       29.60F

$$
MOZ066>068-077>081-088>096-101>105-220500-
...SOUTHWEST MISSOURI...

CITY           SKY/WX    TMP DP  RH WIND       PRES   REMARKS
SPRINGFIELD    HVY RAIN  59  58  96 S17G31    29.67F FOG
JOPLIN         TSTM      59  58  96 S18G25    29.60F

$$
MOZ032>034-039>042-045>050-055>058-069>072-220500-
...CENTRAL MISSOURI...

CITY           SKY/WX    TMP DP  RH WIND       PRES   REMARKS
COLUMBIA       RAIN      57  57 100 S7        29.72F FOG
JEFFERSON CITY LGT RAIN  59  57  93 W8        29.72S
ROLLA          CLOUDY    58  56  93 S16G25    29.73F
SEDALIA        CLOUDY    59  58  96 SE14      29.63F
WARRENSBURG    CLOUDY    55  54  94 SE10      29.60F

$$
MOZ051-052-059>065-220500-
...EAST CENTRAL MISSOURI...

CITY           SKY/WX    TMP DP  RH WIND       PRES   REMARKS
ST LOUIS INTL  CLOUDY    57  56  96 S13       29.80F

$$
MOZ072>076-082>087-097>100-106>115-220500-
...SOUTH CENTRAL AND SOUTHEAST MISSOURI...

CITY           SKY/WX    TMP DP  RH WIND       PRES   REMARKS
CAPE GIRARDEAU CLOUDY    54  50  86 SE13      29.87F
POPLAR BLUFF   MOCLDY    57  54  89 SE8       29.84F
WEST PLAINS    CLOUDY    59  55  87 SE15G23   29.77F

$$



USA.gov is the U.S. government's official web portal to all federal, state and local government web resources and services.